Location: Peebles
(55.6412°N, 3.1714°W)
Time: 18:36:56
(UTC+01:00)

Cosmos 1934 Rocket - Pass Details

Date: 05 February 2022
Orbit: 938 x 999 km, 83.0° (Epoch: 25 May)

Event Time Altitude Azimuth Distance (km) Brightness Sun altitude
Rises 07:02:49 0° 200° (SSW) 3,674 7.0 -8.1°
Reaches altitude 10° 07:05:22 10° 204° (SSW) 2,721 6.3 -7.8°
Maximum altitude 07:11:33 64° 285° (WNW) 1,064 4.0 -6.9°
Drops below altitude 10° 07:17:42 10° 8° (N) 2,697 6.2 -6.1°
Sets 07:20:13 0° 11° (NNE) 3,639 6.9 -5.8°
